Date,TemperatureHighF,TemperatureAvgF,TemperatureLowF,DewpointHighF,DewpointAvgF,DewpointLowF,HumidityHigh,HumidityAvg,HumidityLow,PressureMaxIn,PressureMinIn,WindSpeedMaxMPH,WindSpeedAvgMPH,GustSpeedMaxMPH,PrecipitationSumIn
2013-10-1,77.9,68.1,59.3,65.2,61.9,57.5,94,81,63,30.18,30.09,5,0,9,0.00
2013-10-2,84.0,70.6,60.7,73.0,65.8,60.1,98,86,61,30.20,30.09,3,0,9,0.00
2013-10-3,80.4,70.4,65.0,71.6,68.1,64.7,100,93,69,30.17,30.08,4,0,9,0.06
2013-10-4,83.3,72.1,63.7,70.6,66.4,63.5,100,84,60,30.19,30.10,4,1,9,0.02
2013-10-5,84.9,71.9,65.9,71.3,67.1,64.8,98,86,60,30.14,30.00,8,1,11,0.02
2013-10-6,80.3,67.6,53.2,69.3,63.9,52.8,99,89,62,30.01,29.80,11,2,14,1.00
2013-10-7,64.9,55.2,47.6,53.5,48.9,45.8,99,81,51,30.22,29.92,3,1,9,0.12
2013-10-8,70.0,56.0,46.0,53.5,47.9,44.1,94,76,50,30.33,30.22,2,0,9,0.00
2013-10-9,76.7,61.1,48.8,58.7,50.1,45.9,92,70,41,30.29,30.21,1,0,9,0.00
2013-10-10,77.4,61.3,47.3,55.7,50.1,45.3,94,70,42,30.25,30.14,1,0,9,0.00
2013-10-11,79.7,64.1,49.7,59.5,53.7,48.0,99,72,46,30.17,30.08,2,0,9,0.00
2013-10-12,77.0,59.5,53.0,63.7,55.8,51.6,98,88,53,30.15,30.08,1,0,9,0.00
2013-10-15,72.5,69.3,65.5,64.1,63.1,62.3,91,81,73,30.10,30.03,1,0,9,0.00
2013-10-16,65.7,62.0,56.6,62.9,60.9,56.0,99,96,90,30.05,29.99,3,1,9,0.30
2013-10-17,56.3,53.0,48.3,56.0,51.9,47.2,100,96,87,30.10,29.94,4,0,9,0.40
2013-10-18,65.1,51.3,38.9,52.7,45.6,38.6,100,83,51,30.18,30.06,3,0,9,0.00
2013-10-19,51.4,46.8,41.7,50.9,45.4,40.8,98,95,90,30.14,29.95,7,1,13,0.14
2013-10-20,61.3,47.2,34.3,47.0,40.0,33.9,100,79,45,30.22,30.13,5,1,9,0.02
2013-10-21,67.4,53.1,40.7,47.9,42.1,38.6,93,70,39,30.17,30.02,7,2,11,0.00
2013-10-22,58.1,48.8,40.5,48.5,38.5,31.8,96,70,42,30.15,29.93,6,1,12,0.12
2013-10-23,46.1,42.3,37.5,45.3,39.4,34.0,97,89,78,30.17,29.83,7,2,11,0.06
2013-10-24,46.4,39.2,34.9,37.5,34.5,30.7,92,83,64,30.39,30.16,7,1,9,0.07
2013-10-25,48.6,37.5,29.6,33.2,29.8,27.5,94,76,47,30.58,30.39,3,0,9,0.00
2013-10-26,53.5,40.6,27.9,35.6,30.8,26.1,93,71,45,30.44,30.11,9,3,14,0.01
2013-10-27,63.1,49.7,37.4,45.8,40.6,35.1,94,72,50,30.21,30.13,4,0,9,0.00
2013-10-28,59.4,53.1,45.5,55.3,50.0,42.7,95,89,85,30.35,30.18,1,0,9,0.00
2013-10-29,62.8,54.1,46.4,58.5,52.6,45.9,100,95,83,30.42,30.27,0,0,9,0.00
2013-10-30,64.4,59.0,55.3,62.9,58.6,54.7,100,98,94,30.29,30.14,9,1,15,0.49
2013-10-31,71.5,65.6,63.1,63.8,59.7,55.8,96,81,69,30.15,29.56,19,8,31,0.03